Flag for Norway Weather past 2 weeks in Halden, Norway

43 °F

Light rain. Partly cloudy.

Feels Like: 36 °F
Forecast: 33 / 40 °F
Wind: 14 mph from South

Location: Rygge

Current Time: Nov 29, 2015 at 8:18:17 AM

Latest Report: Nov 29, 2015 at 7:20 AM

Visibility: N/A

Pressure: 28.91 "Hg

Humidity: 87%

Dew point: 39 °F

Location of HaldenLocation

Historic Weather in Halden — Graph


Halden temperature yesterday

Maximum temperature yesterday: 48 °F (at 12:20 AM)
Minimum temperature yesterday: 37 °F (at 3:50 PM)
Average temperature yesterday: 42 °F

Past Weeks' High & Low Weather Summary

High50 °F (Nov 16, 3:50 PM)100% (Nov 14, 6:20 AM)29.98 "Hg (Nov 14, 6:20 AM)
Low14 °F (Nov 23, 1:50 AM)62% (Nov 15, 1:50 PM)28.94 "Hg (Nov 29, 5:50 AM)
Average35 °F91%29.50 "Hg
* Reported Nov 14 5:50 AM — Nov 29 5:50 AM, Halden, Weather by CustomWeather, © 2015

Note: Actual official high and low records may vary slightly from our data, if they occured in-between our weather recording intervals... More about our weather records


Halden weather history for previous 24 hours

Time TempWeatherWind HumidityBarometerVisibility
5:50 AM
Sun, Nov 29
43 °FRain. Partly cloudy.22 mph87%28.94 "Hg3 mi
5:20 AM43 °FLight rain. Mostly cloudy.24 mph87%28.97 "Hg5 mi
4:50 AM43 °FOvercast.24 mph93%28.97 "HgN/A
4:20 AM43 °FLight rain. Mostly cloudy.25 mph93%29.00 "Hg5 mi
3:50 AM43 °FLight rain. Mostly cloudy.26 mph87%29.03 "Hg4 mi
3:20 AM43 °FLight rain. Mostly cloudy.28 mph87%29.03 "Hg5 mi
2:50 AM43 °FRain. Mostly cloudy.25 mph93%29.06 "Hg3 mi
2:20 AM43 °FLight rain. Mostly cloudy.24 mph93%29.09 "Hg6 mi
1:50 AM43 °FLight rain. Mostly cloudy.23 mph87%29.12 "Hg4 mi
12:50 AM45 °FPassing clouds.24 mph81%29.18 "HgN/A
12:20 AM43 °FPartly cloudy.21 mph87%29.18 "HgN/A
11:50 PM
Sat, Nov 28
43 °FPassing clouds.20 mph87%29.21 "HgN/A
10:50 PM43 °FPassing clouds.18 mph76%29.24 "HgN/A
9:50 PM41 °FRain. Partly cloudy.14 mph81%29.30 "HgN/A
9:20 PM39 °FClear.9 mph81%29.30 "Hg10 mi
8:50 PM39 °FClear.9 mph75%29.33 "Hg10 mi
8:20 PM39 °FClear.12 mph75%29.33 "Hg10 mi
7:50 PM39 °FPassing clouds.8 mph75%29.33 "HgN/A
7:20 PM37 °FClear.8 mph75%29.36 "Hg10 mi
6:50 PM39 °FClear.10 mph70%29.33 "Hg10 mi
6:20 PM39 °FClear.10 mph70%29.36 "Hg10 mi
5:50 PM39 °FClear.9 mph70%29.36 "Hg10 mi
5:20 PM39 °FPassing clouds.8 mph70%29.36 "HgN/A
4:50 PM39 °FClear.9 mph70%29.33 "Hg10 mi
4:20 PM37 °FClear.9 mph75%29.33 "Hg10 mi
3:50 PM37 °FPassing clouds.6 mph75%29.33 "HgN/A
3:20 PM39 °FSunny.7 mph70%29.33 "Hg10 mi
2:50 PM39 °FSunny.8 mph75%29.33 "Hg10 mi
2:20 PM41 °FSunny.7 mph70%29.33 "Hg10 mi
1:50 PM41 °FSunny.7 mph70%29.30 "Hg10 mi
1:20 PM41 °FSunny.7 mph70%29.30 "Hg10 mi
12:50 PM41 °FPassing clouds.7 mph76%29.30 "HgN/A
12:20 PM41 °FSunny.8 mph70%29.27 "Hg10 mi
11:50 AM41 °FSunny.8 mph76%29.27 "Hg10 mi
11:20 AM41 °FSunny.8 mph81%29.27 "Hg10 mi
10:50 AM41 °FSunny.7 mph87%29.27 "Hg10 mi
10:20 AM41 °FSunny.7 mph93%29.24 "Hg10 mi
9:50 AM41 °FPassing clouds.5 mph93%29.24 "HgN/A
9:20 AM39 °FSunny.3 mph100%29.24 "Hg10 mi
8:50 AM39 °FSunny.6 mph100%29.24 "Hg10 mi
8:20 AM39 °FClear.5 mph100%29.21 "Hg10 mi
Weather by CustomWeather, © 2015

See weather overviewHow to use our weather pages